Regional Weather Roundup
Issued by NWS

Home | Current Version | Previous Version | Graphics & Text | Print | Product List | Glossary On
Versions: 1 2 3 4 5 6 7 8 9 10 11 12 13 14 15 16 17 18 19 20 21 22 23 24 25 26 27 28 29 30 31 32 33 34 35 36 37 38 39 40 41 42 43 44 45 46 47 48 49 50
325
ASUS43 KLSX 311507
RWRMO

WEATHER SUMMARY FOR MISSOURI
NATIONAL WEATHER SERVICE SPRINGFIELD MO
1000 AM CDT WED AUG 31 2016

NOTE: "FAIR" INDICATES FEW OR NO CLOUDS BELOW 12,000 FEET WITH NO
       SIGNIFICANT WEATHER AND/OR OBSTRUCTIONS TO VISIBILITY.
       CURRENT SKY AND/OR WEATHER CONDITIONS ARE NOT AVAILABLE FOR
       CHILLICOTHE AND FARMINGTON.

MOZ001>031-035>038-043-044-053-054-311600-
...NORTHERN AND WESTERN MISSOURI...

CITY           SKY/WX    TMP DP  RH WIND       PRES   REMARKS
KANSAS CTY INT CLOUDY    74  69  85 NE9       30.14R
KANSAS C DTWN  MOSUNNY   76  70  82 NE7       30.12R
LEE`S SUMMIT   CLOUDY    73  70  90 N3        30.14R
ST JOSEPH      CLOUDY    73  69  87 NE7       30.15R
CHILLICOTHE      N/A     73  70  90 N5        30.14S
KIRKSVILLE     CLOUDY    71  68  90 N5        30.13S

$$
MOZ066>068-077>081-088>096-101>105-311600-
...SOUTHWEST MISSOURI...

CITY           SKY/WX    TMP DP  RH WIND       PRES   REMARKS
SPRINGFIELD    LGT RAIN  71  69  93 SE5       30.12R
JOPLIN         CLOUDY    73  71  93 CALM      30.11S
BRANSON        CLOUDY    77  73  88 CALM      30.12R

$$
MOZ032>034-039>042-045>050-055>058-069>072-311600-
...CENTRAL MISSOURI...

CITY           SKY/WX    TMP DP  RH WIND       PRES   REMARKS
COLUMBIA       CLOUDY    75  73  93 N6        30.11R
JEFFERSON CITY PTSUNNY   74  71  91 W3        30.10R
ROLLA          CLOUDY    74  70  87 N3        30.10R
SEDALIA        CLOUDY    71  68  90 NE8       30.13R
WHITEMAN AFB   PTSUNNY   71  71  99 N3        30.11R
OSAGE BEACH    CLOUDY    74  72  93 CALM      30.12R

$$
MOZ051-052-059>065-311600-
...EAST CENTRAL MISSOURI...

CITY           SKY/WX    TMP DP  RH WIND       PRES   REMARKS
ST LOUIS INTL  CLOUDY    77  72  84 NW6       30.07R
SPIRIT OF STL  CLOUDY    75  73  93 W5        30.06R
ST CHARLES     CLOUDY    75  74  96 W3        30.06R

$$
MOZ072>076-082>087-097>100-106>115-311600-
...SOUTH CENTRAL AND SOUTHEAST MISSOURI...

CITY           SKY/WX    TMP DP  RH WIND       PRES   REMARKS
CAPE GIRARDEAU NOT AVBL
FARMINGTON     SUNNY     75  70  84 NW5       30.09S
POPLAR BLUFF   SUNNY     82  73  74 NE3       30.03S
WEST PLAINS    MOSUNNY   80  68  66 CALM      30.11S

$$



USA.gov is the U.S. government's official web portal to all federal, state and local government web resources and services.